Location: Milevsko
(49.4500°N, 14.3670°E)
Time: 00:59:24
(UTC+01:00)

ISS - Pass Details

Date: 18 July 2018
Orbit: 401 x 408 km, 51.6° (Epoch: 20 November)

Event Time Altitude Azimuth Distance (km) Brightness Sun altitude
Exits shadow 23:27:35 12° 87° (E) 1,376 -1.4 -16.0°
Drops below altitude 10° 23:27:53 10° 84° (E) 1,487 -1.2 -16.0°
Enters shadow 00:44:57 -28° 252° (WSW) 6,701 2.3 -19.3°
Maximum altitude 01:01:21 79° 344° (NNW) 426 -3.8 -19.5°
